TimeMST,TemperatureF,Dew PointF,Humidity,Sea Level PressureIn,VisibilityMPH,Wind Direction,Wind SpeedMPH,Gust SpeedMPH,PrecipitationIn,Events,Conditions,WindDirDegrees,DateUTC
12:15 AM,4.1,0.7,86,30.29,10.0,NW,6.9,-,N/A,,Clear,310,2013-01-04 07:15:00
12:35 AM,4.8,1.0,84,30.29,10.0,NW,5.8,-,N/A,,Clear,310,2013-01-04 07:35:00
12:55 AM,4.5,1.0,86,30.28,10.0,NW,6.9,-,N/A,,Clear,320,2013-01-04 07:55:00
1:15 AM,0.3,-3.3,85,30.28,10.0,NW,5.8,-,N/A,,Clear,320,2013-01-04 08:15:00
1:35 AM,1.0,-2.4,86,30.28,10.0,NW,6.9,-,N/A,,Clear,310,2013-01-04 08:35:00
1:55 AM,-0.0,-3.5,85,30.29,10.0,NW,6.9,-,N/A,,Clear,310,2013-01-04 08:55:00
2:15 AM,-0.0,-3.6,85,30.29,10.0,NNW,5.8,-,N/A,,Clear,330,2013-01-04 09:15:00
5:15 AM,-3.3,-7.4,82,30.27,10.0,NW,8.1,-,N/A,,Clear,310,2013-01-04 12:15:00
5:35 AM,-4.2,-8.3,82,30.27,10.0,NW,9.2,-,N/A,,Clear,320,2013-01-04 12:35:00
5:55 AM,-4.0,-8.1,82,30.28,10.0,NW,5.8,-,N/A,,Clear,310,2013-01-04 12:55:00
6:15 AM,-3.6,-7.8,82,30.28,10.0,NW,6.9,-,N/A,,Clear,310,2013-01-04 13:15:00
6:35 AM,-3.6,-7.8,82,30.28,10.0,WNW,6.9,-,N/A,,Clear,300,2013-01-04 13:35:00
6:55 AM,-3.3,-7.2,83,30.28,10.0,WNW,8.1,-,N/A,,Clear,300,2013-01-04 13:55:00
7:15 AM,-3.1,-7.6,81,30.28,10.0,NW,10.4,-,N/A,,Clear,310,2013-01-04 14:15:00
7:35 AM,-1.8,-6.2,82,30.29,10.0,WNW,6.9,-,N/A,,Clear,290,2013-01-04 14:35:00
7:55 AM,-0.4,-4.9,81,30.29,10.0,NW,5.8,-,N/A,,Clear,320,2013-01-04 14:55:00
8:15 AM,-0.6,-5.3,81,30.30,10.0,NNW,5.8,-,N/A,,Clear,340,2013-01-04 15:15:00
8:35 AM,1.6,-3.1,81,30.30,10.0,NW,5.8,-,N/A,,Clear,320,2013-01-04 15:35:00
8:55 AM,4.3,-0.4,81,30.30,10.0,NNW,6.9,-,N/A,,Clear,330,2013-01-04 15:55:00
9:15 AM,6.1,1.0,80,30.30,10.0,NNW,6.9,-,N/A,,Clear,340,2013-01-04 16:15:00
9:35 AM,9.0,3.7,79,30.30,10.0,NNW,8.1,-,N/A,,Clear,330,2013-01-04 16:35:00
9:55 AM,10.9,4.3,75,30.30,10.0,North,6.9,-,N/A,,Clear,350,2013-01-04 16:55:00
10:15 AM,14.2,6.1,70,30.30,10.0,NW,8.1,-,N/A,,Clear,320,2013-01-04 17:15:00
10:35 AM,16.9,7.3,66,30.29,10.0,NNW,6.9,-,N/A,,Clear,340,2013-01-04 17:35:00
10:55 AM,20.1,9.0,62,30.28,10.0,NNW,6.9,-,N/A,,Clear,340,2013-01-04 17:55:00
11:15 AM,21.7,8.8,57,30.27,10.0,NNW,6.9,-,N/A,,Clear,330,2013-01-04 18:15:00
11:35 AM,24.8,9.9,53,30.26,10.0,NNW,4.6,-,N/A,,Clear,340,2013-01-04 18:35:00
11:55 AM,26.4,9.3,49,30.24,10.0,North,5.8,-,N/A,,Clear,360,2013-01-04 18:55:00
12:15 PM,28.2,8.2,43,30.23,10.0,North,6.9,-,N/A,,Clear,360,2013-01-04 19:15:00
12:35 PM,29.8,9.0,42,30.21,10.0,North,5.8,-,N/A,,Clear,360,2013-01-04 19:35:00
12:55 PM,31.6,9.0,39,30.20,10.0,North,4.6,-,N/A,,Clear,350,2013-01-04 19:55:00
1:15 PM,32.4,7.5,35,30.18,10.0,North,3.5,-,N/A,,Clear,350,2013-01-04 20:15:00
1:35 PM,33.8,6.1,31,30.17,10.0,NNW,4.6,-,N/A,,Clear,330,2013-01-04 20:35:00
1:55 PM,34.9,5.0,29,30.16,10.0,NW,6.9,-,N/A,,Clear,310,2013-01-04 20:55:00
2:15 PM,36.5,5.7,28,30.16,10.0,North,8.1,-,N/A,,Clear,350,2013-01-04 21:15:00
2:35 PM,35.8,3.2,25,30.16,10.0,NNW,6.9,-,N/A,,Clear,340,2013-01-04 21:35:00
2:55 PM,36.1,3.0,25,30.16,10.0,NNW,6.9,-,N/A,,Clear,330,2013-01-04 21:55:00
3:15 PM,36.3,4.3,26,30.16,10.0,NNW,10.4,-,N/A,,Clear,340,2013-01-04 22:15:00
3:35 PM,36.0,3.4,25,30.16,10.0,NNW,6.9,-,N/A,,Clear,340,2013-01-04 22:35:00
3:55 PM,35.1,0.9,24,30.16,10.0,North,10.4,-,N/A,,Clear,350,2013-01-04 22:55:00
4:15 PM,34.3,1.8,25,30.16,10.0,NNW,9.2,-,N/A,,Clear,340,2013-01-04 23:15:00
4:35 PM,33.3,1.4,26,30.16,10.0,North,11.5,-,N/A,,Clear,350,2013-01-04 23:35:00
4:55 PM,32.0,2.8,29,30.16,10.0,North,5.8,-,N/A,,Clear,350,2013-01-04 23:55:00
5:15 PM,27.3,2.7,35,30.16,10.0,NW,5.8,-,N/A,,Clear,320,2013-01-05 00:15:00
5:35 PM,27.5,5.4,39,30.17,10.0,NW,6.9,-,N/A,,Clear,310,2013-01-05 00:35:00
5:55 PM,23.0,5.2,47,30.18,10.0,WNW,6.9,-,N/A,,Clear,290,2013-01-05 00:55:00
6:15 PM,23.0,5.9,48,30.18,10.0,WNW,4.6,-,N/A,,Clear,300,2013-01-05 01:15:00
6:35 PM,18.5,4.1,54,30.19,10.0,Calm,Calm,-,N/A,,Clear,0,2013-01-05 01:35:00
6:55 PM,19.0,4.8,54,30.20,10.0,Calm,Calm,-,N/A,,Clear,0,2013-01-05 01:55:00
7:15 PM,14.7,3.6,61,30.20,10.0,West,3.5,-,N/A,,Clear,280,2013-01-05 02:15:00
7:35 PM,16.2,4.8,61,30.20,10.0,WNW,3.5,-,N/A,,Clear,290,2013-01-05 02:35:00
7:55 PM,14.7,4.5,64,30.20,10.0,NW,4.6,-,N/A,,Clear,310,2013-01-05 02:55:00
8:15 PM,16.5,6.4,65,30.20,10.0,NW,6.9,-,N/A,,Clear,310,2013-01-05 03:15:00
8:35 PM,15.3,6.3,68,30.20,10.0,NW,6.9,-,N/A,,Clear,310,2013-01-05 03:35:00
8:55 PM,14.4,5.9,69,30.21,10.0,NW,8.1,-,N/A,,Clear,310,2013-01-05 03:55:00
9:15 PM,12.2,4.8,72,30.22,10.0,NW,8.1,-,N/A,,Clear,310,2013-01-05 04:15:00
9:35 PM,13.6,5.7,71,30.22,10.0,WNW,6.9,-,N/A,,Clear,290,2013-01-05 04:35:00
9:55 PM,15.4,6.3,67,30.22,10.0,West,9.2,-,N/A,,Clear,280,2013-01-05 04:55:00
10:15 PM,15.6,6.1,66,30.23,10.0,West,3.5,-,N/A,,Clear,280,2013-01-05 05:15:00
10:35 PM,13.6,5.7,71,30.23,10.0,Calm,Calm,-,N/A,,Clear,0,2013-01-05 05:35:00
10:55 PM,9.5,3.2,76,30.24,10.0,NNW,4.6,-,N/A,,Clear,330,2013-01-05 05:55:00
11:15 PM,8.4,3.4,80,30.24,10.0,NW,5.8,-,N/A,,Clear,310,2013-01-05 06:15:00
11:35 PM,9.0,3.7,79,30.24,10.0,WNW,5.8,-,N/A,,Clear,290,2013-01-05 06:35:00
11:55 PM,10.2,4.1,76,30.24,10.0,NNW,6.9,-,N/A,,Clear,340,2013-01-05 06:55:00